Location: Ballingbuur
(53.0000°N, 5.7667°E)
Time: 07:05:31
(UTC+00:00)

Cosmos 2082 Rocket - Pass Details

Date: 29 November 2020
Orbit: 831 x 855 km, 71.0° (Epoch: 24 January)

Event Time Altitude Azimuth Distance (km) Brightness Sun altitude
Exits shadow 04:57:18 12° 343° (NNW) 2,329 4.2 -21.2°
Maximum altitude 05:01:36 27° 37° (NE) 1,578 3.9 -20.6°
Drops below altitude 10° 05:06:25 10° 95° (E) 2,485 5.9 -19.8°
Sets 05:09:15 0° 107° (ESE) 3,421 7.0 -19.4°
